[[{"header":{"parameterUnit":"m.s-1","parameterCategory":1,"la1":30.2991,"la2":30.254,"lo1":-89.0895,"lo2":-89.0444,"dy":0.0017,"dx":0.0017,"nx":28,"ny":28,"refTime":"2024-02-28T03:00:00:Z","depth":0,"parameterNumber":2,"parameterNumberName":"U-component_of_WINDS"},"data":[0,0,0,0,0,0,0,0,0,0,0,0,0,0,0,0,0,0,0,0,0,0,0,0,0,0,0,0,0,0,0,0,0,0,0,0,0,0,0,0,0,0,0,0,0,0,0,0,0,0,0,0,0,0,0,0,0,0,-5.2814,-5.2815,0,-5.2923,-5.2924,-5.2926,-5.2835,-5.2831,-5.2828,-5.2824,-5.2936,-5.2943,-5.2949,0,0,0,0,0,0,0,0,0,0,0,0,0,-5.2527,-5.2533,-5.2814,-5.2815,-5.2817,-5.2923,-5.2924,-5.2926,-5.2836,-5.2831,-5.2827,-5.2822,-5.2934,-5.2942,-5.295,0,0,0,0,0,0,0,0,0,0,0,0,0,-5.2645,-5.2534,-5.2814,-5.2785,-5.2783,-5.2923,-5.2925,-5.2926,-5.2837,-5.2831,-5.2826,-5.282,-5.2932,-5.2941,-5.2951,-5.3125,0,0,-5.2981,-5.2985,0,0,0,0,0,0,0,0,-5.2639,-5.2656,-5.2788,-5.2787,-5.2785,-5.286,-5.2864,-5.2993,-5.2838,-5.2817,-5.2824,-5.2817,-5.2915,-5.2926,-5.2959,-5.313,-5.3135,-5.2981,-5.2987,-5.2992,-5.2994,0,0,0,0,0,0,0,-5.2631,-5.2651,-5.2857,-5.279,-5.2788,-5.2766,-5.2776,-5.2888,-5.2897,-5.2818,-5.2812,-5.2826,-5.2914,-5.295,-5.2961,-5.3137,-5.2981,-5.299,-5.2996,-5.3,-5.3455,-5.3461,0,0,0,0,0,0,-5.2625,-5.2645,-5.2854,-5.286,-5.2697,-5.2776,-5.2787,-5.2842,-5.2895,-5.2898,-5.2831,-5.2821,-5.2936,-5.295,-5.2965,-5.3172,-5.2991,-5.3001,-5.3006,-5.3449,-5.3457,-5.3464,0,0,0,0,0,0,-5.262,-5.2645,-5.2849,-5.2751,-5.2775,-5.2787,-5.2848,-5.2847,-5.2883,-5.2905,-5.2906,-5.2866,-5.2932,-5.2951,-5.3086,-5.3175,-5.3005,-5.3014,-5.3442,-5.3452,-5.346,-5.3589,0,0,0,0,0,0,-5.2612,-5.2643,-5.271,-5.2753,-5.2781,-5.2969,-5.2854,-5.2853,-5.29,-5.2889,-5.2938,-5.2941,-5.2929,-5.3072,-5.3095,-5.3185,-5.3022,-5.3434,-5.3446,-5.3457,-5.3577,-5.3602,-5.3623,0,0,0,0,0,-5.2602,-5.2742,-5.2714,-5.274,-5.2864,-5.2974,-5.299,-5.2974,-5.2908,-5.2975,-5.2988,-5.2939,-5.3161,-5.3086,-5.3112,-5.3207,-5.3428,-5.3443,-5.3456,-5.3567,-5.3597,-5.3623,0,0,0,0,0,0,-5.271,-5.2747,-5.2716,-5.2875,-5.2922,-5.2959,-5.3043,-5.3006,-5.3073,-5.306,-5.3036,-5.3048,-5.319,-5.3211,-5.3127,-5.3378,-5.3284,-5.3304,-5.3359,-5.3388,-5.341,-5.3403,-5.303,0,0,0,0,0,-5.2752,-5.2838,-5.2866,-5.3003,-5.3029,-5.3032,-5.3079,-5.3062,-5.311,-5.313,-5.3153,-5.3202,-5.3282,-5.3336,-5.3411,-5.3579,-5.3588,-5.3657,-5.3679,-5.3698,-5.3716,-5.3807,-5.3837,-5.351,-5.351,-5.3509,0,0,-5.284,-5.2871,-5.2928,-5.3026,-5.3061,-5.3151,-5.305,-5.3149,-5.3216,-5.3145,-5.3274,-5.3293,-5.3345,-5.3497,-5.3565,-5.3519,-5.3808,-5.3716,-5.3731,-5.3739,-5.3824,-5.3855,-5.3883,-5.3519,-5.3517,-5.3516,0,0,-5.3047,-5.3079,-5.3197,-5.3234,-5.3287,-5.3288,-5.3317,-5.3359,-5.3369,-5.3498,-5.3446,-5.3525,-5.3664,-5.3703,-5.3742,-5.3962,-5.392,-5.3987,-5.4108,-5.4196,-5.4222,-5.4245,-5.4324,-5.4353,-5.4005,-5.4005,-5.4005,0,-5.3151,-5.3284,-5.3262,-5.3366,-5.3411,-5.335,-5.3469,-5.3506,-5.3581,-5.3613,-5.356,-5.3733,-5.3764,-5.3925,-5.3978,-5.4011,-5.4043,-5.3982,-5.422,-5.4243,-5.4264,-5.4339,-5.4369,-5.4013,-5.4012,-5.4011,-5.401,0,-5.3409,-5.3502,-5.3591,-5.3665,-5.3719,-5.383,-5.3825,-5.3883,-5.386,-5.3867,-5.3998,-5.4033,-5.4114,-5.4151,-5.413,-5.4309,-5.4278,-5.4223,-5.4129,-5.4303,-5.4374,-5.4402,-5.4024,-5.4021,-5.4019,-5.4017,0,0,-5.3689,-5.3749,-5.3782,-5.3815,-5.3868,-5.394,-5.4048,-5.4127,-5.4177,-5.423,-5.432,-5.4438,-5.4387,-5.4431,-5.4414,-5.4491,-5.4664,-5.4426,-5.4427,-5.447,-5.4863,-5.4906,-5.4939,-5.4636,-5.4641,-5.4645,-5.4859,0,-5.3899,-5.4087,-5.407,-5.4247,-5.4333,-5.4276,-5.437,-5.4413,-5.4421,-5.4495,-5.4504,-5.4589,-5.4515,-5.4541,-5.4615,-5.4628,-5.4743,-5.4612,-5.472,-5.4724,-5.471,-5.4976,-5.5021,-5.5221,-5.4887,-5.4891,-5.4895,0,-5.417,-5.4233,-5.4419,-5.4459,-5.4495,-5.458,-5.465,-5.4721,-5.4769,-5.4769,-5.4818,-5.4787,-5.4895,-5.4797,-5.4945,-5.4856,-5.4899,-5.4912,-5.4919,-5.493,-5.4821,-5.4995,-5.5285,-5.5315,-5.4938,-5.4934,-5.4931,0,-5.4357,-5.4488,-5.4616,-5.4646,-5.4696,-5.4757,-5.478,-5.4822,-5.487,-5.4932,-5.4963,-5.5036,-5.5077,-5.5134,-5.5124,-5.5054,-5.5276,-5.5177,-5.5279,-5.528,-5.533,-5.5328,-5.5632,-5.5356,-5.5355,-5.5355,-5.5354,0,-5.4594,-5.4711,-5.4701,-5.478,-5.4909,-5.4887,-5.5015,-5.5031,-5.5068,-5.515,-5.5104,-5.5181,-5.5162,-5.5239,-5.5231,-5.5356,-5.5374,-5.5378,-5.5375,-5.5383,-5.5383,-5.5412,-5.5398,-5.5363,-5.5361,-5.536,-5.5358,0,-5.4826,-5.4824,-5.496,-5.4996,-5.5007,-5.5101,-5.5131,-5.5205,-5.5209,-5.5313,-5.5335,-5.5342,-5.543,-5.5425,-5.5524,-5.5518,-5.5672,-5.5652,-5.5656,-5.5653,-5.5756,-5.5747,-5.6091,-5.6135,-5.5829,-5.5832,-5.5835,0,-5.4978,-5.5066,-5.5111,-5.5162,-5.519,-5.5273,-5.5321,-5.5303,-5.5356,-5.5416,-5.5483,-5.5566,-5.5632,-5.5774,-5.5788,-5.5863,-5.5845,-5.5961,-5.5856,-5.5862,-5.5848,-5.5844,-5.5852,-5.5982,-5.5985,-5.5988,-5.599,0,-5.5249,-5.5243,-5.5316,-5.5388,-5.5448,-5.5504,-5.5555,-5.5599,-5.5586,-5.5647,-5.5736,-5.5787,-5.5887,-5.5971,-5.6042,-5.6066,-5.6027,-5.6023,-5.6051,-5.6061,-5.606,-5.6062,-5.5714,-5.6015,-5.6013,-5.6011,-5.601,-5.6009,-5.5446,-5.5522,-5.5565,-5.5647,-5.5684,-5.5732,-5.5804,-5.5817,-5.589,-5.5971,-5.5955,-5.6055,-5.6098,-5.619,-5.6221,-5.6298,-5.6257,-5.6297,-5.6308,-5.6319,-5.6331,-5.6046,-5.6311,-5.631,-5.631,-5.6309,-5.6309,0,-5.5716,-5.574,-5.5816,-5.5889,-5.5953,-5.5909,-5.5963,-5.602,-5.6108,-5.6152,-5.6218,-5.6319,-5.6399,-5.6419,-5.6496,-5.6554,-5.6538,-5.6575,-5.6571,-5.6577,-5.6363,-5.6331,-5.6587,-5.6587,-5.6587,-5.6586,-5.6586,-5.6586,-5.5864,-5.599,-5.5989,-5.6132,-5.6155,-5.6253,-5.6287,-5.6332,-5.6367,-5.6483,-5.6549,-5.656,-5.6595,-5.6673,-5.6745,-5.6748,-5.6779,-5.6824,-5.682,-5.662,-5.6592,-5.6566,-5.6536,-5.683,-5.6831,-5.7028,-5.703,-5.7032]},{"header":{"parameterUnit":"m.s-1","parameterCategory":1,"la1":30.2991,"la2":30.254,"lo1":-89.0895,"lo2":-89.0444,"dy":0.0017,"dx":0.0017,"nx":28,"ny":28,"refTime":"2024-02-28T03:00:00:Z","depth":0,"parameterNumber":3,"parameterNumberName":"V-component_of_WINDS"},"data":[0,0,0,0,0,0,0,0,0,0,0,0,0,0,0,0,0,0,0,0,0,0,0,0,0,0,0,0,0,0,0,0,0,0,0,0,0,0,0,0,0,0,0,0,0,0,0,0,0,0,0,0,0,0,0,0,0,0,-6.1286,-6.1287,0,-6.134,-6.1341,-6.1341,-6.1283,-6.1281,-6.1279,-6.1277,-6.1327,-6.1331,-6.1334,0,0,0,0,0,0,0,0,0,0,0,0,0,-6.1128,-6.1131,-6.1286,-6.1287,-6.1288,-6.134,-6.1341,-6.1342,-6.1284,-6.1281,-6.1278,-6.1276,-6.1326,-6.133,-6.1334,0,0,0,0,0,0,0,0,0,0,0,0,0,-6.119,-6.1132,-6.1286,-6.1265,-6.1264,-6.134,-6.1341,-6.1342,-6.1284,-6.1281,-6.1277,-6.1274,-6.1325,-6.133,-6.1335,-6.1433,0,0,-6.1351,-6.1353,0,0,0,0,0,0,0,0,-6.1187,-6.1196,-6.1267,-6.1267,-6.1265,-6.1302,-6.1303,-6.1372,-6.1285,-6.1276,-6.1277,-6.1273,-6.1321,-6.1326,-6.1344,-6.1435,-6.1438,-6.1351,-6.1354,-6.1356,-6.1358,0,0,0,0,0,0,0,-6.1183,-6.1194,-6.1307,-6.1269,-6.1267,-6.1251,-6.1256,-6.1316,-6.1317,-6.1277,-6.1273,-6.128,-6.132,-6.1339,-6.1344,-6.1438,-6.1351,-6.1355,-6.1359,-6.1361,-6.1612,-6.1615,0,0,0,0,0,0,-6.1181,-6.119,-6.1306,-6.1309,-6.1217,-6.1257,-6.1263,-6.1293,-6.1316,-6.1316,-6.1283,-6.1277,-6.1332,-6.1339,-6.1346,-6.1461,-6.1356,-6.1361,-6.1364,-6.1608,-6.1612,-6.1616,0,0,0,0,0,0,-6.1178,-6.1192,-6.1303,-6.1249,-6.1262,-6.1263,-6.1298,-6.1296,-6.1315,-6.1321,-6.132,-6.1303,-6.1329,-6.1339,-6.1412,-6.1462,-6.1363,-6.1368,-6.1604,-6.1609,-6.1614,-6.1694,0,0,0,0,0,0,-6.1174,-6.1191,-6.123,-6.125,-6.1265,-6.137,-6.1301,-6.13,-6.1325,-6.1318,-6.1339,-6.1339,-6.1328,-6.1405,-6.1417,-6.1468,-6.1372,-6.1599,-6.1606,-6.1613,-6.1687,-6.1701,-6.1714,0,0,0,0,0,-6.1168,-6.125,-6.1232,-6.1247,-6.1313,-6.1373,-6.1382,-6.1368,-6.1329,-6.1367,-6.137,-6.1338,-6.1455,-6.1413,-6.1426,-6.1479,-6.1596,-6.1604,-6.1612,-6.1681,-6.1698,-6.1713,0,0,0,0,0,0,-6.1234,-6.1252,-6.1233,-6.1323,-6.1348,-6.1363,-6.1411,-6.1388,-6.1422,-6.1414,-6.1394,-6.1399,-6.1477,-6.1485,-6.1437,-6.1574,-6.1519,-6.153,-6.1566,-6.1583,-6.1596,-6.1592,-6.1376,0,0,0,0,0,-6.126,-6.1309,-6.132,-6.1399,-6.1412,-6.141,-6.1435,-6.1423,-6.1446,-6.1456,-6.1464,-6.1487,-6.1528,-6.1556,-6.1595,-6.1688,-6.169,-6.173,-6.1744,-6.1755,-6.1765,-6.1813,-6.183,-6.1643,-6.1643,-6.1643,0,0,-6.1312,-6.1327,-6.1359,-6.1413,-6.143,-6.1479,-6.1419,-6.1473,-6.1509,-6.1463,-6.1533,-6.154,-6.1564,-6.1647,-6.1684,-6.1656,-6.1817,-6.1765,-6.1774,-6.1778,-6.1823,-6.1841,-6.1856,-6.1648,-6.1647,-6.1646,0,0,-6.1432,-6.145,-6.1517,-6.1535,-6.1562,-6.156,-6.1576,-6.1596,-6.1599,-6.1669,-6.1635,-6.1677,-6.1749,-6.1767,-6.1786,-6.1912,-6.1884,-6.1925,-6.1995,-6.2043,-6.2057,-6.207,-6.2114,-6.213,-6.1935,-6.1935,-6.1935,0,-6.1493,-6.1568,-6.1553,-6.1611,-6.1634,-6.1597,-6.1663,-6.1681,-6.1719,-6.1735,-6.1704,-6.1794,-6.1807,-6.1893,-6.1924,-6.1941,-6.1957,-6.1922,-6.2057,-6.207,-6.2081,-6.2123,-6.214,-6.194,-6.1939,-6.1939,-6.1938,0,-6.1641,-6.1693,-6.1743,-6.1782,-6.1812,-6.1873,-6.1866,-6.1897,-6.1882,-6.1883,-6.1953,-6.1968,-6.2008,-6.2028,-6.2013,-6.2112,-6.2093,-6.206,-6.2004,-6.2104,-6.2143,-6.2159,-6.1947,-6.1945,-6.1943,-6.1942,0,0,-6.1804,-6.1835,-6.1853,-6.187,-6.1897,-6.1936,-6.1995,-6.2036,-6.2062,-6.2089,-6.2137,-6.2199,-6.2168,-6.2189,-6.2176,-6.2217,-6.2315,-6.2178,-6.2178,-6.2202,-6.2423,-6.2447,-6.2466,-6.2296,-6.2299,-6.2302,-6.242,0,-6.1924,-6.2029,-6.2017,-6.2116,-6.2163,-6.2127,-6.2178,-6.2199,-6.2201,-6.2239,-6.224,-6.2284,-6.224,-6.2253,-6.2292,-6.2295,-6.2359,-6.2286,-6.2339,-6.2341,-6.2334,-6.2486,-6.2513,-6.2624,-6.2435,-6.2438,-6.244,0,-6.2079,-6.2113,-6.2217,-6.2235,-6.2255,-6.2301,-6.2337,-6.2375,-6.2397,-6.2395,-6.2419,-6.2398,-6.2455,-6.2398,-6.2476,-6.2427,-6.2448,-6.2452,-6.2456,-6.2459,-6.2396,-6.2493,-6.2659,-6.2676,-6.2464,-6.2462,-6.246,0,-6.2186,-6.2258,-6.2329,-6.2344,-6.2368,-6.2402,-6.2413,-6.2432,-6.2457,-6.2488,-6.2503,-6.254,-6.256,-6.2588,-6.2577,-6.2536,-6.2656,-6.2598,-6.2654,-6.2655,-6.2681,-6.2679,-6.2851,-6.2696,-6.2695,-6.2695,-6.2695,0,-6.2322,-6.2386,-6.2378,-6.2421,-6.2492,-6.2477,-6.2546,-6.2553,-6.257,-6.2613,-6.2584,-6.2624,-6.2608,-6.2646,-6.2638,-6.2702,-6.2712,-6.2711,-6.2707,-6.2713,-6.2713,-6.2726,-6.2717,-6.27,-6.2699,-6.2698,-6.2697,0,-6.2454,-6.2451,-6.2526,-6.2542,-6.2548,-6.2599,-6.2612,-6.2652,-6.2652,-6.2706,-6.2718,-6.2716,-6.276,-6.2752,-6.2801,-6.2795,-6.2876,-6.2863,-6.2869,-6.2865,-6.2922,-6.2916,-6.3107,-6.3131,-6.2961,-6.2963,-6.2964,0,-6.254,-6.2589,-6.2611,-6.2638,-6.2652,-6.2697,-6.2722,-6.2708,-6.2736,-6.2765,-6.2801,-6.2842,-6.2875,-6.2947,-6.2949,-6.2985,-6.2973,-6.3038,-6.2978,-6.2982,-6.2973,-6.297,-6.2974,-6.3049,-6.3051,-6.3053,-6.3054,0,-6.2692,-6.2688,-6.2727,-6.2766,-6.2797,-6.2826,-6.2852,-6.2876,-6.2864,-6.2896,-6.2942,-6.2967,-6.3017,-6.3058,-6.3092,-6.3101,-6.3075,-6.3073,-6.3087,-6.3093,-6.3094,-6.3093,-6.29,-6.3068,-6.3067,-6.3066,-6.3065,-6.3064,-6.2803,-6.2845,-6.2867,-6.2911,-6.2929,-6.2954,-6.2992,-6.2996,-6.3035,-6.3075,-6.3064,-6.3115,-6.3135,-6.3178,-6.3191,-6.3229,-6.3205,-6.3227,-6.3232,-6.3237,-6.3244,-6.3089,-6.3236,-6.3235,-6.3235,-6.3234,-6.3234,0,-6.2954,-6.2966,-6.3007,-6.3044,-6.3079,-6.3053,-6.308,-6.3109,-6.3155,-6.3176,-6.3209,-6.3261,-6.33,-6.3306,-6.3343,-6.3372,-6.3361,-6.3383,-6.338,-6.3382,-6.3264,-6.3247,-6.3391,-6.3391,-6.3391,-6.3391,-6.3391,-6.3391,-6.3036,-6.3104,-6.3103,-6.3179,-6.3191,-6.3242,-6.3259,-6.3281,-6.3298,-6.3357,-6.3391,-6.3394,-6.3408,-6.3446,-6.3481,-6.3481,-6.3495,-6.3521,-6.3517,-6.3406,-6.339,-6.3376,-6.336,-6.3525,-6.3525,-6.3631,-6.3632,-6.3633]}]]